Regional Weather Roundup
Issued by NWS

Home | Current Version | Previous Version | Text Only | Print | Product List | Glossary On
Versions: 1 2 3 4 5 6 7 8 9 10 11 12 13 14 15 16 17 18 19 20 21 22 23 24 25 26 27 28 29 30 31 32 33 34 35 36 37 38 39 40 41 42 43 44 45 46 47 48 49 50
785
ASUS44 KLIX 261411
RWRLA
LOUISIANA WEATHER ROUNDUP
NATIONAL WEATHER SERVICE NEW ORLEANS LA
900 AM CDT THU MAR 26 2015

NOTE: "FAIR" INDICATES FEW OR NO CLOUDS BELOW 12,000 FEET WITH NO
      SIGNIFICANT WEATHER AND/OR OBSTRUCTIONS TO VISIBILITY.
      SKY/WX - SKY CONDITION AND SIGNIFICANT WEATHER.
      TMP - AIR TEMPERATURE.    DP   - DEWPOINT TEMPERATURE.
      RH  - RELATIVE HUMIDITY.  PRES - PRESSURE.
      HX  - HEAT INDEX.         WCI  - WIND CHILL INDEX.

*  THESE STATIONS ARE NOT NWS OR FAA STATIONS AND ARE NOT UNDER
   NWS QUALITY CONTROL.

LAZ040-048-061>063-065-066-069-261500-
SOUTHEAST LOUISIANA

CITY           SKY/WX    TMP DP  RH WIND       PRES   REMARKS
N.O. AUDUBON     N/A     70  65  84 MISG        N/A
N.O. INTL ARPT LGT RAIN  69  66  90 VRB3      29.92S FOG
N.O. LAKEFRONT LGT RAIN  71  67  87 SE8       29.92S FOG
SLIDELL        CLOUDY    67  66  97 CALM      29.91F
BATON ROUGE    PTSUNNY   65  62  90 NE3       29.92F
BOOTHVILLE     RAIN      69  68  96 SW7       29.93S FOG
BELLE CHASSE   TSTM      70  67  90 E5        29.91S FOG
BOGALUSA*        N/A     65  62  89 CALM      29.95S
GALLIANO*      CLOUDY    70  67  89 W5        29.94R
NEW ROADS*     FAIR      65  62  90 E3        29.92F
GONZALES*      LGT RAIN  66  66 100 CALM      29.92S
HAMMOND*       CLOUDY    66  63  88 N3        29.94S
HOUMA*         PTSUNNY   70  68  94 SW5       29.93R FOG
PORT FOURCHON* MOSUNNY   70  64  83 W9        29.95R

$$

LAZ041-044-053-054-261500-
SOUTHWEST LOUISIANA

CITY           SKY/WX    TMP DP  RH WIND       PRES   REMARKS
LAKE CHARLES   MOSUNNY   68  66  93 CALM      29.90F FOG
LAFAYETTE      MOSUNNY   65  63  93 CALM      29.92F
PATTERSON      CLOUDY    66  64  94 CALM      29.92S
SALT POINT       N/A     66  63  90 CALM      29.89F
NEW IBERIA     LGT RAIN  68  66  93 NE5       29.93R
CHENAULT AIRPK PTSUNNY   63  63 100 CALM      29.93S FOG

$$

LAZ027-028-261500-
CENTRAL LOUISIANA

CITY           SKY/WX    TMP DP  RH WIND       PRES   REMARKS
FORT POLK      CLOUDY    63  62  96 NW1       29.90S FOG
ALEXANDRIA INT CLOUDY    63  62  97 CALM      29.91S FOG
ALEXANDRIA     FOG       61  61 100 CALM      29.92S VSB 3/4

$$

LAZ001-002-261500-
NORTHWEST LOUISIANA

CITY           SKY/WX    TMP DP  RH WIND       PRES   REMARKS
SHREVEPORT     CLOUDY    64  60  87 SW5       29.89S
BARKSDALE AFB  CLOUDY    64  61  90 S7        29.89S
DTN SHREVEPORT CLOUDY    64  59  83 SW6       29.90S

$$

LAZ014-016-261500-
NORTHEAST LOUISIANA

CITY           SKY/WX    TMP DP  RH WIND       PRES   REMARKS
MONROE         CLOUDY    61  59  93 CALM      29.92F
TALLULAH       MOSUNNY   65  59  81 E3        29.94F

$$




USA.gov is the U.S. government's official web portal to all federal, state and local government web resources and services.